Glendive, MT

10:37 PM MST on January 20, 2017 (GMT -0700)
Glendive

Weather History for KGDV - November, 2012

Change the Weather History Date:

Monday, November 19, 2012

  Actual Average Record
Temperature  
Mean Temperature 34 °F -  
Max Temperature 46 °F 36 °F 64 °F (2003)
Min Temperature 21 °F 18 °F 1 °F (2011)
Degree Days  
Heating Degree Days 32    
Moisture  
Dew Point 27 °F    
Average Humidity 71    
Maximum Humidity 93    
Minimum Humidity 53    
Precipitation  
Precipitation 0.00 in - - ()
Sea Level Pressure  
Sea Level Pressure 30.01 in    
Wind  
Wind Speed 7 mph (SSW)    
Max Wind Speed 17 mph    
Max Gust Speed -    
Visibility 10 miles    
Events      
Averages and records for this station are not official NWS values.
T = Trace of Precipitation, MM = Missing Value Source: NWS Daily Summary

Daily Weather History Graph

Daily Weather History Graph

Search for Another Location

Airport or City:

Trip Planner

Search our weather history database for the weather conditions in past years. The results will help you decide how hot, cold, wet, or windy it might be!

Date:

Astronomy

Nov. 19, 2012 Rise Set
Actual Time 7:09 AM MST 4:19 PM MST
Civil Twilight 6:35 AM MST 4:53 PM MST
Nautical Twilight 5:58 AM MST 5:30 PM MST
Astronomical Twilight 5:22 AM MST 6:06 PM MST
Moon 12:04 PM MST (11/19) 11:00 PM MST (11/19)
Length of Visible Light 10h 17m
Length of Day
9h 09m
Waxing Crescent, 41% of the Moon is Illuminated
Nov 19
Waxing Crescent
Nov 20
First Quarter
Nov 28
Full
Dec 6
Last Quarter
Dec 13
New

Hourly Weather History & Observations

Time (MST) Temp. Windchill Dew Point Humidity Pressure Visibility Wind Dir Wind Speed Gust Speed Precip Events Conditions
12:15 AM 33.8 °F 28.6 °F 28.4 °F 81% 30.01 in 10.0 mi WNW 5.8 mph - N/A   Mostly Cloudy
12:35 AM 30.2 °F 23.4 °F 24.8 °F 80% 30.02 in 10.0 mi West 6.9 mph - N/A   Scattered Clouds
12:55 AM 32.0 °F 24.8 °F 24.8 °F 75% 30.02 in 10.0 mi West 8.1 mph - N/A   Mostly Cloudy
1:15 AM 32.0 °F 28.7 °F 24.8 °F 75% 30.01 in 10.0 mi North 3.5 mph - N/A   Mostly Cloudy
1:35 AM 32.0 °F 27.5 °F 26.6 °F 80% 30.01 in 10.0 mi SSE 4.6 mph - N/A   Mostly Cloudy
2:15 AM 30.2 °F - 26.6 °F 86% 30.03 in 10.0 mi Calm Calm - N/A   Partly Cloudy
2:35 AM 28.4 °F 23.3 °F 24.8 °F 86% 30.03 in 10.0 mi South 4.6 mph - N/A   Mostly Cloudy
2:55 AM 28.4 °F 22.2 °F 23.0 °F 80% 30.03 in 10.0 mi SSW 5.8 mph - N/A   Partly Cloudy
3:15 AM 28.4 °F 23.3 °F 26.6 °F 93% 30.04 in 10.0 mi SSW 4.6 mph - N/A   Mostly Cloudy
3:35 AM 26.6 °F 18.2 °F 23.0 °F 86% 30.03 in 10.0 mi SW 8.1 mph - N/A   Scattered Clouds
3:55 AM 26.6 °F 19.1 °F 21.2 °F 80% 30.04 in 10.0 mi WSW 6.9 mph - N/A   Clear
4:15 AM 28.4 °F 23.3 °F 26.6 °F 93% 30.04 in 10.0 mi West 4.6 mph - N/A   Clear
4:35 AM 24.8 °F 17.9 °F 19.4 °F 80% 30.04 in 10.0 mi West 5.8 mph - N/A   Clear
4:55 AM 24.8 °F 20.5 °F 21.2 °F 86% 30.03 in 10.0 mi NNW 3.5 mph - N/A   Clear
5:15 AM 26.6 °F - 23.0 °F 86% 30.04 in 10.0 mi Calm Calm - N/A   Clear
5:35 AM 24.8 °F 20.5 °F 21.2 °F 86% 30.04 in 10.0 mi SSE 3.5 mph - N/A   Clear
5:55 AM 26.6 °F 17.5 °F 24.8 °F 93% 30.04 in 10.0 mi SSE 9.2 mph - N/A   Clear
6:15 AM 24.8 °F 17.9 °F 19.4 °F 80% 30.05 in 10.0 mi South 5.8 mph - N/A   Clear
6:35 AM 24.8 °F 17.9 °F 19.4 °F 80% 30.05 in 10.0 mi SSW 5.8 mph - N/A   Clear
6:55 AM 21.2 °F 13.6 °F 17.6 °F 86% 30.05 in 10.0 mi WSW 5.8 mph - N/A   Clear
7:15 AM 24.8 °F 20.5 °F 19.4 °F 80% 30.06 in 10.0 mi SW 3.5 mph - N/A   Clear
7:35 AM 24.8 °F 17.9 °F 21.2 °F 86% 30.06 in 10.0 mi SSW 5.8 mph - N/A   Clear
7:55 AM 26.6 °F 20.0 °F 24.8 °F 93% 30.06 in 10.0 mi South 5.8 mph - N/A   Clear
8:15 AM 28.4 °F 22.2 °F 24.8 °F 86% 30.06 in 10.0 mi SSW 5.8 mph - N/A   Clear
8:35 AM 32.0 °F 27.5 °F 26.6 °F 80% 30.07 in 10.0 mi South 4.6 mph - N/A   Clear
8:55 AM 33.8 °F 28.6 °F 28.4 °F 81% 30.07 in 10.0 mi South 5.8 mph - N/A   Clear
9:15 AM 33.8 °F 28.6 °F 28.4 °F 81% 30.07 in 10.0 mi South 5.8 mph - N/A   Clear
9:35 AM 33.8 °F 28.6 °F 28.4 °F 81% 30.07 in 10.0 mi SSE 5.8 mph - N/A   Clear
9:55 AM 35.6 °F 29.9 °F 28.4 °F 75% 30.08 in 10.0 mi SSE 6.9 mph - N/A   Clear
10:15 AM 35.6 °F 29.9 °F 30.2 °F 81% 30.07 in 10.0 mi SSE 6.9 mph - N/A   Clear
10:35 AM 37.4 °F 30.8 °F 30.2 °F 75% 30.07 in 10.0 mi South 9.2 mph - N/A   Clear
10:55 AM 39.2 °F 33.0 °F 30.2 °F 70% 30.07 in 10.0 mi South 9.2 mph - N/A   Clear
11:15 AM 39.2 °F 34.2 °F 30.2 °F 70% 30.06 in 10.0 mi SSW 6.9 mph - N/A   Clear
11:35 AM 41.0 °F 36.4 °F 32.0 °F 70% 30.06 in 10.0 mi SSW 6.9 mph - N/A   Clear
11:55 AM 42.8 °F 38.6 °F 32.0 °F 66% 30.05 in 10.0 mi South 6.9 mph - N/A   Clear
12:15 PM 42.8 °F 38.6 °F 33.8 °F 70% 30.04 in 10.0 mi South 6.9 mph - N/A   Clear
12:35 PM 44.6 °F 43.1 °F 33.8 °F 66% 30.04 in 10.0 mi SSW 3.5 mph - N/A   Clear
12:55 PM 46.4 °F 45.2 °F 33.8 °F 62% 30.03 in 10.0 mi SSW 3.5 mph - N/A   Clear
1:15 PM 46.4 °F 44.3 °F 33.8 °F 62% 30.02 in 10.0 mi South 4.6 mph - N/A   Clear
1:35 PM 46.4 °F 43.5 °F 33.8 °F 62% 30.02 in 10.0 mi SSW 5.8 mph - N/A   Clear
1:55 PM 46.4 °F 43.5 °F 33.8 °F 62% 30.00 in 10.0 mi South 5.8 mph - N/A   Clear
2:15 PM 44.6 °F 42.2 °F 33.8 °F 66% 30.00 in 10.0 mi South 4.6 mph - N/A   Clear
2:35 PM 46.4 °F 44.3 °F 33.8 °F 62% 30.00 in 10.0 mi South 4.6 mph - N/A   Clear
2:55 PM 46.4 °F 44.3 °F 33.8 °F 62% 30.00 in 10.0 mi South 4.6 mph - N/A   Clear
3:35 PM 42.8 °F 37.5 °F 32.0 °F 66% 30.00 in 10.0 mi South 9.2 mph - N/A   Clear
3:55 PM 42.8 °F 36.6 °F 30.2 °F 61% 29.99 in 10.0 mi South 11.5 mph - N/A   Clear
4:15 PM 44.6 °F 40.2 °F 30.2 °F 57% 29.99 in 10.0 mi South 8.1 mph - N/A   Clear
4:35 PM 44.6 °F 40.2 °F 30.2 °F 57% 30.00 in 10.0 mi SSE 8.1 mph - N/A   Clear
4:55 PM 44.6 °F 40.2 °F 28.4 °F 53% 29.98 in 10.0 mi SSE 8.1 mph - N/A   Clear
5:15 PM 42.8 °F 37.5 °F 28.4 °F 57% 29.98 in 10.0 mi South 9.2 mph - N/A   Clear
5:35 PM 41.0 °F 35.2 °F 28.4 °F 61% 29.97 in 10.0 mi South 9.2 mph - N/A   Clear
5:55 PM 42.8 °F 35.8 °F 28.4 °F 57% 29.98 in 10.0 mi South 13.8 mph - N/A   Clear
6:15 PM 41.0 °F 34.7 °F 26.6 °F 57% 29.98 in 10.0 mi South 10.4 mph - N/A   Clear
6:35 PM 41.0 °F 33.9 °F 28.4 °F 61% 29.97 in 10.0 mi South 12.7 mph - N/A   Clear
6:55 PM 41.0 °F 34.7 °F 28.4 °F 61% 29.97 in 10.0 mi South 10.4 mph - N/A   Clear
7:35 PM 39.2 °F 32.0 °F 26.6 °F 61% 29.97 in 10.0 mi South 11.5 mph - N/A   Clear
7:55 PM 41.0 °F 34.3 °F 26.6 °F 57% 29.97 in 10.0 mi South 11.5 mph - N/A   Clear
8:15 PM 41.0 °F 34.3 °F 26.6 °F 57% 29.97 in 10.0 mi South 11.5 mph - N/A   Clear
8:35 PM 41.0 °F 33.5 °F 26.6 °F 57% 29.96 in 10.0 mi South 13.8 mph - N/A   Clear
8:55 PM 39.2 °F 31.2 °F 26.6 °F 61% 29.95 in 10.0 mi South 13.8 mph - N/A   Clear
9:15 PM 39.2 °F 30.5 °F 26.6 °F 61% 29.95 in 10.0 mi South 16.1 mph - N/A   Clear
9:35 PM 39.2 °F 30.8 °F 26.6 °F 61% 29.94 in 10.0 mi South 15.0 mph - N/A   Clear
9:55 PM 39.2 °F 30.5 °F 26.6 °F 61% 29.94 in 10.0 mi South 16.1 mph - N/A   Clear
10:15 PM 39.2 °F 30.2 °F 26.6 °F 61% 29.93 in 10.0 mi South 17.3 mph - N/A   Clear
10:35 PM 39.2 °F 30.5 °F 26.6 °F 61% 29.93 in 10.0 mi South 16.1 mph - N/A   Clear
10:55 PM 39.2 °F 31.6 °F 26.6 °F 61% 29.92 in 10.0 mi South 12.7 mph - N/A   Clear
11:15 PM 37.4 °F 29.3 °F 26.6 °F 65% 29.92 in 10.0 mi SSW 12.7 mph - N/A   Clear
11:35 PM 37.4 °F 29.3 °F 26.6 °F 65% 29.92 in 10.0 mi SSW 12.7 mph - N/A   Clear
11:55 PM 37.4 °F 29.8 °F 26.6 °F 65% 29.92 in 10.0 mi SSW 11.5 mph - N/A   Clear